sat.trackr.live / text

‹ back to catalog

STARLINK-32233

NORAD 60434 · 2024-144K

PAYLOAD ACTIVE UNKNOWN

§ Identity

Operator
Country
US
Launch date
2024-08-12
Launch site
AFETR
Launch vehicle
Mass (kg)
RCS (m²)

Purposes: comms

External: N2YO · Heavens-Above · Gunter

§ Orbital elements

Epoch: 2026-09-21T01:41:35.533824Z

Period
93.85 min
Inclination
53.1610°
Eccentricity
0.0001039
Mean motion
15.34383938 rev/d
Perigee alt
462.0 km
Apogee alt
463.5 km
Semi-major
6,840.9 km
B*
3.0153e-5
RAAN
25.2958°
Arg perigee
99.3860°
Mean anomaly
260.7260°
Rev number
11,928

§ Raw data

STARLINK-322331 60434U 24144K   26264.07055016  .00000642  00000+0  30153-4 0  99932 60434  53.1610  25.2958 0001039  99.3860 260.7260 15.34383938119285

JSON: /api/v1/satellites/60434 · /tle

For live sub-satellite position, see the globe view (requires WebGL).

§ Visibility from observer

Set your observer location to see the next 7 days of passes ≥ 10°. The values pass through the URL so the page stays shareable.

No JS? Fill the form by hand. The geolocation button needs JavaScript.